This demonstration page uses our WeatherBlox Daily Observations layout. Learn more.

Left ArrowRight Arrow

Hourly Observations for February 1, 2022

Temp ( °F °C ) Dew Point ( °F °C ) Humidity (%) Winds ( mph kmh ) Pressure ( in mb ) Visibility ( mi km ) Precip ( " mm )
12:53 am 00:53 Partly Cloudy 5 -15 -3 -19.4 69 69 NW 14 22 30.35 1028 10 16 0.00 0.00
1:53 am 01:53 Cloudy 4 -15.6 -4 -20 69 69 NW 10 17 30.35 1028 10 16 0.00 0.00
2:53 am 02:53 Cloudy 3 -16.1 -4 -20 72 72 WNW 8 13 30.37 1028 10 16 0.00 0.00
3:53 am 03:53 Cloudy 3 -16.1 -4 -20 72 72 W 8 13 30.38 1029 10 16 0.00 0.00
4:53 am 04:53 Cloudy 3 -16.1 -5 -20.6 69 69 WNW 5 7 30.39 1029 10 16 0.00 0.00
5:53 am 05:53 Cloudy 3 -16.1 -5 -20.6 69 69 WNW 3 6 30.40 1029 10 16 0.00 0.00
6:53 am 06:53 Cloudy 3 -16.1 -4 -20 72 72 Calm 30.41 1030 10 16 0.00 0.00
7:53 am 07:53 Cloudy 3 -16.1 -6 -21.1 66 66 ENE 7 11 30.42 1030 10 16 0.00 0.00
8:53 am 08:53 Sunny 2 -16.7 -7 -21.7 65 65 ENE 9 15 30.45 1031 10 16 0.00 0.00
9:53 am 09:53 Cloudy 2 -16.7 -6 -21.1 69 69 E 9 15 30.47 1032 10 16 0.00 0.00
10:53 am 10:53 Cloudy 4 -15.6 -6 -21.1 63 63 E 7 11 30.48 1032 10 16 0.00 0.00
11:31 am 11:31 Cloudy with Light Snow 4 -15.6 -5 -20.6 66 66 NE 8 13 30.58 1036 2 3 0.00 0.00
11:48 am 11:48 Cloudy with Haze 5 -15 -4 -20 66 66 NE 9 15 30.57 1035 3 5 0.00 0.00
11:53 am 11:53 Cloudy with Haze 5 -15 -4 -20 66 66 ENE 9 15 30.48 1032 3 5 0.00 0.00
12:11 pm 12:11 Cloudy with Haze 5 -15 -3 -19.4 69 69 NE 8 13 30.57 1035 3 4 0.00 0.00
12:37 pm 12:37 Cloudy with Haze 5 -15 -3 -19.4 69 69 NE 8 13 30.57 1035 3 5 0.01 0.25
12:53 pm 12:53 Cloudy with Haze 5 -15 -4 -20 66 66 NE 9 15 30.48 1032 3 5 0.01 0.25
1:11 pm 13:11 Cloudy with Haze 5 -15 -3 -19.4 69 69 NE 9 15 30.57 1035 3 4 0.00 0.00
1:20 pm 13:20 Cloudy with Haze 5 -15 -4 -20 66 66 NE 8 13 30.57 1035 2 3 0.00 0.00
1:33 pm 13:33 Cloudy with Haze 4 -15.6 -3 -19.4 73 73 NE 8 13 30.58 1036 1 2 0.00 0.00
1:44 pm 13:44 Mostly Cloudy with Light Snow 4 -15.6 -2 -18.9 76 76 NE 8 13 30.58 1036 1 1 0.01 0.25
1:53 pm 13:53 Cloudy with Haze 4 -15.6 -2 -18.9 76 76 NE 9 15 30.48 1032 1 2 0.01 0.25
2:12 pm 14:12 Cloudy with Haze 4 -15.6 -3 -19.4 73 73 NE 9 15 30.57 1035 2 3 0.00 0.00
2:22 pm 14:22 Cloudy with Light Snow 4 -15.6 -2 -18.9 76 76 E 10 17 30.57 1035 1 2 0.00 0.00
2:32 pm 14:32 Cloudy with Light Snow 5 -15 -2 -18.9 72 72 ENE 9 15 30.56 1035 2 2 0.00 0.00
2:37 pm 14:37 Cloudy with Haze 5 -15 -2 -18.9 72 72 ENE 9 15 30.57 1035 2 3 0.00 0.00
2:53 pm 14:53 Cloudy with Haze 5 -15 -3 -19.4 69 69 ENE 7 11 30.48 1032 2 3 0.00 0.00
3:06 pm 15:06 Cloudy with Haze 5 -15 -3 -19.4 69 69 NE 7 11 30.58 1036 2 2 0.01 0.25
3:25 pm 15:25 Cloudy with Haze 5 -15 -2 -18.9 72 72 NE 9 15 30.58 1036 2 3 0.01 0.25
3:36 pm 15:36 Cloudy with Light Snow 5 -15 -2 -19 72 72 NE 10 17 30.59 1036 2 2 0.00 0.00
3:46 pm 15:46 Cloudy with Haze 4 -15.6 -3 -19.4 73 73 NNE 8 13 30.60 1036 3 5 0.01 0.25
3:53 pm 15:53 Cloudy with Haze 5 -15 -3 -19.4 69 69 NE 8 13 30.50 1033 4 6 0.01 0.25
4:05 pm 16:05 Cloudy with Light Snow 4 -15.6 -2 -18.9 76 76 NE 13 20 30.61 1037 2 3 0.00 0.00
4:13 pm 16:13 Cloudy with Light Snow 4 -15.6 -2 -18.9 76 76 ENE 12 19 30.61 1037 2 2 0.00 0.00
4:23 pm 16:23 Cloudy with Light Snow 3 -16.1 -2 -18.9 79 79 ENE 10 17 30.63 1037 1 2 0.00 0.00
4:53 pm 16:53 Mostly Cloudy with Light Snow 3 -16.1 -2 -18.9 79 79 ENE 10 17 30.53 1034 1 2 0.01 0.25
5:00 pm 17:00 Mostly Cloudy with Light Snow 3 -16.1 -2 -18.9 79 79 ENE 12 19 30.64 1037 1 1 0.00 0.00
5:29 pm 17:29 Cloudy with Light Snow 2 -16.7 -3 -19.4 80 80 NE 12 19 30.65 1038 2 2 0.01 0.25
5:37 pm 17:37 Cloudy with Light Snow 2 -16.7 -3 -19.4 80 80 ENE 12 19 30.66 1038 3 4 0.01 0.25
5:53 pm 17:53 Cloudy with Light Snow 2 -16.7 -3 -19.4 80 80 NE 12 19 30.56 1035 3 4 0.01 0.25
5:58 pm 17:58 Cloudy with Haze 2 -16.7 -4 -20 76 76 NE 12 19 30.67 1039 3 5 0.00 0.00
6:53 pm 18:53 Cloudy 1 -17.2 -6 -21.1 72 72 ENE 9 15 30.59 1036 10 16 0.00 0.00
7:53 pm 19:53 Mostly Clear -1 -18.3 -8 -22.2 72 72 ENE 3 6 30.61 1037 10 16 0.00 0.00
8:53 pm 20:53 Cloudy 0 -17.8 -7 -21.7 72 72 ENE 5 7 30.64 1038 10 16 0.00 0.00
9:53 pm 21:53 Cloudy 0 -17.8 -8 -22.2 69 69 N 5 7 30.66 1038 10 16 0.00 0.00
10:53 pm 22:53 Mostly Clear -6 -21.1 -11 -23.9 78 78 WNW 5 7 30.69 1039 10 16 0.00 0.00
11:53 pm 23:53 Cloudy -6 -21.1 -11 -23.9 78 78 W 5 7 30.71 1040 7 11 0.00 0.00

Powered by AerisWeather